Location: Allaines
(49.9632°N, 2.9458°E)
Time: 21:16:47
(UTC+00:00)

X-37B - Visible Passes

Search period start: 23 June 2021 00:00
Search period end: 03 July 2021 00:00
Orbit: 386 x 389 km, 45.0° (Epoch: 10 June)

Date Brightness Start Highest point End Pass type
(mag) Time Alt. Az. Time Alt. Az. Time Alt. Az.
23 Jun 2.9 02:22:08 10° S 02:22:08 10° S 02:22:16 10° S visible
23 Jun 1.6 22:07:41 10° SW 22:10:09 26° S 22:10:09 26° S visible
24 Jun 2.0 21:09:46 10° SSW 21:12:13 21° SSE 21:14:42 10° ESE visible
24 Jun 1.7 22:45:29 10° WSW 22:47:29 27° SW 22:47:29 27° SW visible
25 Jun 1.4 21:47:18 10° WSW 21:50:10 31° S 21:51:53 18° ESE visible
25 Jun 2.9 23:23:35 10° WSW 23:24:10 14° WSW 23:24:10 14° WSW visible
26 Jun 1.7 20:49:13 10° SW 20:51:57 26° SSE 20:54:40 10° ESE visible
26 Jun 1.3 22:25:16 10° WSW 22:28:10 32° S 22:28:17 32° S visible
27 Jun 1.3 21:27:01 10° WSW 21:29:56 33° S 21:32:18 14° ESE visible
27 Jun 2.6 23:03:31 10° WSW 23:04:34 16° WSW 23:04:34 16° WSW visible
28 Jun 1.6 22:05:07 10° WSW 22:07:55 28° S 22:08:29 26° S visible
29 Jun 1.5 21:06:48 10° WSW 21:09:41 32° S 21:12:24 11° ESE visible
29 Jun 2.7 22:43:37 10° WSW 22:44:39 15° SW 22:44:39 15° SW visible
30 Jun 2.0 21:45:03 10° WSW 21:47:39 23° SSW 21:48:33 20° S visible
01 Jul 1.7 20:46:39 10° WSW 20:49:27 28° S 20:52:14 10° SE visible
01 Jul 3.0 22:24:07 10° SW 22:24:43 11° SW 22:24:43 11° SW visible
02 Jul 2.5 21:25:08 10° WSW 21:27:20 17° SSW 21:28:38 14° S visible
